Weather History for Istanbul, Turkey

Change the Weather History Date:

Sunday, October 28, 2012

  Actual Average Record
Temperature  
Mean Temperature 72 °F -  
Max Temperature 77 °F 58 °F 77 °F (2012)
Min Temperature 68 °F 48 °F 42 °F (2003)
Cooling Degree Days 8    
Growing Degree Days 22 (Base 50)    
Moisture  
Dew Point 56 °F    
Average Humidity 56    
Maximum Humidity 64    
Minimum Humidity 43    
Precipitation  
Precipitation 0.00 in - - ()
Sea Level Pressure  
Sea Level Pressure 29.81 in    
Wind  
Wind Speed 13 mph ()    
Max Wind Speed 20 mph    
Max Gust Speed -    
Visibility 6.2 miles    
Events      
Averages and records for this station are not official NWS values.
T = Trace of Precipitation, MM = Missing Value Source: Averaged Metar Reports

Daily Weather History Graph

Daily Weather History Graph

Search for Another Location

Airport:

Trip Planner

Search our weather history database for the weather conditions in past years. The results will help you decide how hot, cold, wet, or windy it might be!

Date:

Astronomy

Oct. 28, 2012 Rise Set
Actual Time 6:31 AM EET 5:05 PM EET
Civil Twilight 6:02 AM EET 5:33 PM EET
Nautical Twilight 5:30 AM EET 6:05 PM EET
Astronomical Twilight 4:58 AM EET 6:37 PM EET
Moon 4:12 PM EET 5:04 AM EET
Length of Visible Light 11h 30m
Length of Day
10h 34m
Waxing Gibbous, 98% of the Moon is Illuminated
Oct 28
Waxing Gibbous
Oct 29
Full
Nov 7
Last Quarter
Nov 14
New
Nov 20
First Quarter

Hourly Weather History & Observations

Time (EET) Temp. Dew Point Humidity Pressure Visibility Wind Dir Wind Speed Gust Speed Precip Events Conditions
12:20 AM 69.8 °F 57.2 °F 64% 29.80 in 6.2 mi SW 13.8 mph - N/A   Mostly Cloudy
12:50 AM 69.8 °F 55.4 °F 60% 29.80 in 6.2 mi SSW 18.4 mph - N/A   Mostly Cloudy
1:20 AM 69.8 °F 55.4 °F 60% 29.80 in - SSW 17.3 mph - N/A   Clear
1:50 AM 69.8 °F 55.4 °F 60% 29.80 in 6.2 mi SSW 18.4 mph - N/A   Mostly Cloudy
2:20 AM 69.8 °F 55.4 °F 60% 29.80 in 6.2 mi SSW 19.6 mph - N/A   Mostly Cloudy
2:50 AM 69.8 °F 55.4 °F 60% 29.80 in 6.2 mi SSW 18.4 mph - N/A   Mostly Cloudy
3:00 AM 70 °F 55 °F 50% 29.80 in 6 mi SSW 18.4 mph - -   Scattered Clouds
3:20 AM 69.8 °F 55.4 °F 60% 29.80 in 6.2 mi SSW 16.1 mph - N/A   Mostly Cloudy
3:50 AM 69.8 °F 55.4 °F 60% 29.80 in 6.2 mi SSW 13.8 mph - N/A   Mostly Cloudy
3:20 AM 69.8 °F 55.4 °F 60% 29.77 in 6.2 mi SSW 17.3 mph - N/A   Mostly Cloudy
3:50 AM 69.8 °F 57.2 °F 64% 29.77 in 6.2 mi South 12.7 mph - N/A   Mostly Cloudy
4:20 AM 69.8 °F 57.2 °F 64% 29.77 in 6.2 mi SSW 13.8 mph - N/A   Mostly Cloudy
4:50 AM 69.8 °F 57.2 °F 64% 29.77 in 6.2 mi South 11.5 mph - N/A   Mostly Cloudy
5:20 AM 69.8 °F 55.4 °F 60% 29.77 in 6.2 mi South 11.5 mph - N/A   Mostly Cloudy
5:50 AM 69.8 °F 55.4 °F 60% 29.77 in 6.2 mi SSW 15.0 mph - N/A   Mostly Cloudy
6:20 AM 69.8 °F 53.6 °F 56% 29.77 in 6.2 mi SSW 19.6 mph - N/A   Mostly Cloudy
6:50 AM 69.8 °F 55.4 °F 60% 29.80 in 6.2 mi SSW 17.3 mph - N/A   Mostly Cloudy
7:20 AM 69.8 °F 53.6 °F 56% 29.80 in 6.2 mi SSW 17.3 mph - N/A   Mostly Cloudy
7:50 AM 69.8 °F 55.4 °F 60% 29.80 in 6.2 mi SSW 18.4 mph - N/A   Mostly Cloudy
8:00 AM 71 °F 54 °F 45% 29.80 in 6 mi SSW 18.4 mph - -   Scattered Clouds
8:20 AM 71.6 °F 55.4 °F 57% 29.80 in 6.2 mi SSW 16.1 mph - N/A   Mostly Cloudy
8:50 AM 71.6 °F 53.6 °F 53% 29.83 in 6.2 mi SSW 13.8 mph - N/A   Mostly Cloudy
9:20 AM 71.6 °F 55.4 °F 57% 29.83 in 6.2 mi SSW 11.5 mph - N/A   Mostly Cloudy
9:50 AM 73.4 °F 55.4 °F 53% 29.83 in 6.2 mi SSW 13.8 mph - N/A   Mostly Cloudy
10:20 AM 75.2 °F 53.6 °F 47% 29.83 in 6.2 mi SSW 18.4 mph - N/A   Scattered Clouds
10:50 AM 77.0 °F 53.6 °F 44% 29.80 in 6.2 mi SSW 19.6 mph - N/A   Scattered Clouds
11:20 AM 75.2 °F 53.6 °F 47% 29.80 in 6.2 mi South 18.4 mph - N/A   Scattered Clouds
11:50 AM 77.0 °F 53.6 °F 44% 29.80 in 6.2 mi SSW 15.0 mph - N/A   Scattered Clouds
12:20 PM 75.2 °F 55.4 °F 50% 29.80 in 6.2 mi SSW 11.5 mph - N/A   Scattered Clouds
12:50 PM 73.4 °F 57.2 °F 57% 29.80 in 6.2 mi SW 8.1 mph - N/A   Scattered Clouds
1:20 PM 73.4 °F 57.2 °F 57% 29.80 in 6.2 mi SW 10.4 mph - N/A   Scattered Clouds
1:50 PM 73.4 °F 57.2 °F 57% 29.80 in 6.2 mi SW 10.4 mph - N/A   Mostly Cloudy
2:00 PM 74 °F 56 °F 43% 29.82 in 6 mi SW 10.4 mph - -   Partly Cloudy
2:20 PM 75.2 °F 53.6 °F 47% 29.80 in 6.2 mi SSW 10.4 mph - N/A   Mostly Cloudy
2:50 PM 75.2 °F 55.4 °F 50% 29.80 in 6.2 mi SW 11.5 mph - N/A   Mostly Cloudy
3:20 PM 75.2 °F 53.6 °F 47% 29.80 in 6.2 mi SW 12.7 mph - N/A   Mostly Cloudy
3:50 PM 75.2 °F 55.4 °F 50% 29.80 in 6.2 mi SW 9.2 mph - N/A   Mostly Cloudy
4:20 PM 75.2 °F 55.4 °F 50% 29.80 in 6.2 mi West 6.9 mph - N/A   Mostly Cloudy
4:50 PM 73.4 °F 57.2 °F 57% 29.80 in 6.2 mi WSW 5.8 mph - N/A   Mostly Cloudy
5:20 PM 73.4 °F 55.4 °F 53% 29.80 in 6.2 mi SSW 8.1 mph - N/A   Mostly Cloudy
5:50 PM 73.4 °F 57.2 °F 57% 29.83 in 6.2 mi SW 5.8 mph - N/A   Mostly Cloudy
6:20 PM 73.4 °F 55.4 °F 53% 29.83 in 5.6 mi WSW 3.5 mph - N/A   Mostly Cloudy
6:50 PM 71.6 °F 59.0 °F 64% 29.83 in 6.2 mi Variable 2.3 mph - N/A   Mostly Cloudy
7:20 PM 73.4 °F 57.2 °F 57% 29.83 in 6.2 mi SSW 8.1 mph - N/A   Mostly Cloudy
7:50 PM 73.4 °F 55.4 °F 53% 29.83 in 6.2 mi SSW 6.9 mph - N/A   Mostly Cloudy
8:00 PM 74 °F 56 °F 43% 29.84 in 6 mi SSW 6.9 mph - -   Partly Cloudy
8:20 PM 73.4 °F 57.2 °F 57% 29.83 in 6.2 mi SSW 4.6 mph - N/A   Mostly Cloudy
8:50 PM 73.4 °F 57.2 °F 57% 29.83 in 6.2 mi South 3.5 mph - N/A   Mostly Cloudy
9:20 PM 73.4 °F 57.2 °F 57% 29.83 in 6.2 mi Variable 2.3 mph - N/A   Mostly Cloudy
9:50 PM 71.6 °F 59.0 °F 64% 29.83 in 6.2 mi South 4.6 mph - N/A   Mostly Cloudy
10:20 PM 71.6 °F 59.0 °F 64% 29.83 in 6.2 mi South 4.6 mph - N/A   Mostly Cloudy
10:50 PM 71.6 °F 59.0 °F 64% 29.83 in 6.2 mi WSW 5.8 mph - N/A   Mostly Cloudy